DW2762 Weather Reports


Display with metric or nautical units.
time (UTC)temp
F
wind
direction
speed
MPH
gust
MPH
rain 1hr
in
rain 24hr
in
rain mn
in
humidity
%
barometer
mb
20260905040108 63 317 4.0 7.0 0.02 0.02 0.02 81 1016.8
20260905034608 64 317 5.0 18.0 0.00 0.00 0.00 74 1017.1
20260905033108 65 325 5.0 9.0 0.00 0.00 0.00 71 1016.2
20260905031608 66 327 5.0 17.0 0.00 0.00 0.00 67 1015.7
20260905030113 66 312 5.0 14.0 0.00 0.00 0.00 65 1015.6
20260905024613 66 311 5.0 11.0 0.00 0.00 0.00 68 1015.3
20260905021613 66 344 2.0 11.0 0.00 0.00 0.00 68 1015.3
20260905020113 67 337 6.0 15.0 0.00 0.00 0.00 68 1015.2
20260905014612 67 317 11.0 15.0 0.00 0.00 0.00 68 1014.6
20260905011612 69 331 10.0 23.0 0.00 0.00 0.00 67 1014.8
20260905004613 74 301 1.0 4.0 0.00 0.00 0.00 57 1013.0
20260905003112 74 221 2.0 7.0 0.00 0.00 0.00 57 1012.5
20260904234611 74 250 3.0 5.0 0.00 0.00 0.00 57 1012.3
20260904233111 74 279 3.0 10.0 0.00 0.00 0.00 58 1012.3
20260904230111 72 215 0.0 4.0 0.00 0.00 0.00 62 1012.2
20260904224612 71 236 0.0 2.0 0.00 0.00 0.00 63 1012.1
20260904221611 71 254 2.0 5.0 0.00 0.00 0.00 64 1012.2
20260904220111 71 189 0.0 0.0 0.00 0.00 0.00 64 1012.0
20260904214611 72 189 0.0 0.0 0.00 0.00 0.00 62 1012.1
20260904213110 73 189 0.0 2.0 0.00 0.00 0.00 60 1012.1
20260904211610 73 196 3.0 5.0 0.00 0.00 0.00 59 1012.1
20260904210110 71 255 2.0 3.0 0.00 0.00 0.00 62 1012.0
20260904204610 71 253 1.0 2.0 0.00 0.00 0.00 63 1012.1
20260904203110 71 247 0.0 0.0 0.00 0.00 0.00 62 1012.1
20260904201610 72 247 0.0 0.0 0.00 0.00 0.00 61 1012.3
20260904200110 72 257 0.0 0.0 0.00 0.00 0.00 60 1012.5
20260904194610 73 257 1.0 2.0 0.00 0.00 0.00 60 1012.5
20260904193110 74 230 0.0 0.0 0.00 0.00 0.00 58 1012.5
20260904191611 75 229 0.0 0.0 0.00 0.00 0.00 56 1012.6
20260904190109 75 252 1.0 3.0 0.00 0.00 0.00 55 1012.6
20260904184609 76 207 2.0 3.0 0.00 0.00 0.00 54 1012.5
20260904183110 76 188 1.0 3.0 0.00 0.00 0.00 55 1012.5
20260904181609 76 206 1.0 4.0 0.00 0.00 0.00 54 1012.2
20260904180109 78 214 0.0 1.0 0.00 0.00 0.00 53 1012.0
20260904173110 81 195 1.0 4.0 0.00 0.00 0.00 49 1011.6
20260904171609 81 217 4.0 8.0 0.00 0.00 0.00 48 1011.7
20260904164610 82 171 5.0 8.0 0.00 0.00 0.00 47 1011.9
20260904163109 83 255 4.0 11.0 0.00 0.00 0.00 47 1012.0
20260904161609 83 189 2.0 6.0 0.00 0.00 0.00 46 1012.1
20260904160110 84 175 7.0 12.0 0.00 0.00 0.00 45 1012.3
20260904154609 84 205 7.0 15.0 0.00 0.00 0.00 46 1012.5
20260904151609 84 190 9.0 14.0 0.00 0.00 0.00 45 1013.1
20260904150113 85 200 5.0 15.0 0.00 0.00 0.00 45 1013.4
20260904143113 84 193 4.0 15.0 0.00 0.00 0.00 46 1013.7
20260904141613 85 215 5.0 11.0 0.00 0.00 0.00 45 1013.8
20260904140113 85 193 8.0 14.0 0.00 0.00 0.00 44 1014.0
20260904134613 84 211 7.0 13.0 0.00 0.00 0.00 45 1014.2
20260904133113 84 228 4.0 12.0 0.00 0.00 0.00 46 1014.5
20260904130112 84 229 8.0 14.0 0.00 0.00 0.00 46 1014.8
20260904121612 82 234 3.0 14.0 0.00 0.00 0.00 50 1015.5
20260904113112 82 232 5.0 16.0 0.00 0.00 0.00 48 1016.2
20260904111612 81 283 5.0 15.0 0.00 0.00 0.00 51 1016.4
20260904103111 81 192 7.0 18.0 0.00 0.00 0.00 52 1016.7
20260904101611 81 215 6.0 12.0 0.00 0.00 0.00 52 1017.0
20260904100111 78 288 3.0 12.0 0.00 0.00 0.00 55 1017.3
20260904094611 78 281 7.0 19.0 0.00 0.00 0.00 55 1017.6
20260904093111 78 260 6.0 15.0 0.00 0.00 0.00 56 1017.8
20260904091611 79 292 4.0 11.0 0.00 0.00 0.00 55 1017.9
20260904090111 78 202 6.0 12.0 0.00 0.00 0.00 55 1018.0
20260904081610 75 315 7.0 11.0 0.00 0.00 0.00 61 1018.2
20260904080110 74 267 3.0 8.0 0.00 0.00 0.00 63 1018.4
20260904074610 73 278 7.0 12.0 0.00 0.00 0.00 64 1018.6
20260904073111 73 296 4.0 8.0 0.00 0.00 0.00 66 1018.7
20260904071610 71 305 4.0 8.0 0.00 0.00 0.00 68 1018.7
20260904063110 65 150 2.0 3.0 0.00 0.00 0.00 78 1018.8
20260904061610 63 227 1.0 4.0 0.00 0.00 0.00 82 1018.9
20260904060109 61 217 0.0 0.0 0.00 0.00 0.00 85 1018.9
20260904053109 60 217 0.0 0.0 0.00 0.00 0.00 86 1018.9
20260904051609 60 217 0.0 0.0 0.00 0.00 0.00 86 1018.9
20260904044609 59 217 0.0 0.0 0.00 0.00 0.00 86 1018.8
20260904043109 59 217 0.0 0.0 0.00 0.00 0.00 85 1018.8
20260904041609 60 217 0.0 0.0 0.00 0.00 0.00 84 1018.7